Total_Precipitation_Accumulation
1.68 1.85 1.63 1.18 1.00 0.88 0.77 0.66 0.58 0.42 0.35 0.48 0.44 0.30 0.23 0.25 0.31 0.35 0.37 0.44 0.48 0.49 0.51 0.56 0.66 0.80 0.96 1.09 1.22 1.36 1.65 1.81 2.01 2.07 2.01 1.94 2.04 2.07 2.10 2.11 2.06 1.95 1.87 1.76
1.76 1.42 0.80 0.62 0.67 0.80 0.87 0.83 0.62 0.47 0.39 0.50 0.45 0.30 0.23 0.24 0.30 0.33 0.37 0.43 0.47 0.52 0.59 0.63 0.75 0.90 0.97 1.01 1.14 1.31 1.54 1.71 1.82 1.79 1.76 1.75 1.77 1.86 1.93 2.00 2.08 2.10 2.04 1.90
1.24 0.83 0.53 0.67 0.81 0.98 0.95 0.82 0.65 0.59 0.57 0.63 0.61 0.53 0.30 0.28 0.30 0.32 0.37 0.42 0.44 0.49 0.53 0.55 0.67 0.91 1.02 1.01 1.10 1.23 1.44 1.60 1.78 1.92 1.96 1.95 2.07 2.09 1.99 1.90 1.93 2.00 1.99 1.91
0.86 0.56 0.62 0.82 0.84 0.91 0.97 0.62 0.60 0.67 0.94 1.12 0.90 1.00 0.47 0.33 0.35 0.32 0.37 0.45 0.42 0.47 0.52 0.52 0.60 0.82 1.00 0.99 1.14 1.29 1.47 1.69 1.80 1.99 2.02 1.83 1.76 1.81 1.71 1.68 1.67 1.80 1.93 1.92
0.92 0.61 0.72 0.84 0.70 0.68 0.70 0.57 0.70 0.83 1.08 1.26 0.96 1.06 0.59 0.35 0.44 0.41 0.40 0.48 0.45 0.47 0.52 0.51 0.55 0.74 0.96 1.05 1.16 1.36 1.50 1.72 1.88 1.96 1.98 1.83 1.67 1.59 1.66 1.79 1.84 1.80 1.82 1.91
0.72 0.58 0.69 0.62 0.51 0.59 0.69 0.90 1.17 1.32 1.77 1.94 0.91 0.86 0.68 0.54 0.57 0.51 0.47 0.52 0.51 0.51 0.55 0.58 0.60 0.74 0.90 1.03 1.17 1.32 1.54 1.70 1.92 2.01 1.97 1.77 1.60 1.51 1.56 1.65 1.85 1.94 1.92 1.94
1.07 0.79 0.74 0.65 0.82 0.96 1.14 1.72 2.67 2.97 2.92 1.78 0.53 0.58 0.69 0.58 0.53 0.55 0.56 0.56 0.55 0.57 0.61 0.61 0.62 0.71 0.80 0.94 1.11 1.25 1.43 1.70 1.89 2.02 1.95 1.74 1.58 1.48 1.47 1.51 1.62 1.75 1.85 1.91
1.25 1.10 0.80 0.78 0.99 1.24 1.21 1.41 1.94 2.08 1.55 0.77 0.42 0.53 0.57 0.51 0.44 0.46 0.49 0.53 0.48 0.57 0.66 0.65 0.62 0.68 0.76 0.88 1.04 1.21 1.35 1.60 1.84 1.96 1.94 1.83 1.61 1.50 1.46 1.49 1.52 1.57 1.54 1.59
1.25 0.98 0.62 0.59 0.60 0.79 1.13 1.15 0.97 1.31 0.96 0.65 0.57 0.49 0.42 0.37 0.35 0.40 0.46 0.54 0.55 0.59 0.70 0.72 0.69 0.73 0.77 0.87 1.00 1.17 1.32 1.49 1.74 1.95 1.96 1.92 1.74 1.58 1.48 1.46 1.48 1.56 1.54 1.49
1.39 1.17 0.69 0.65 0.74 0.88 0.99 1.08 1.30 1.79 1.50 0.88 0.53 0.43 0.50 0.44 0.40 0.41 0.47 0.57 0.57 0.59 0.67 0.73 0.73 0.75 0.80 0.91 1.03 1.14 1.29 1.41 1.60 1.81 1.92 1.91 1.93 1.75 1.63 1.56 1.50 1.49 1.54 1.53
1.31 1.40 1.02 0.95 1.15 1.14 1.08 1.35 1.63 1.67 1.32 1.10 0.74 0.56 0.54 0.47 0.41 0.41 0.43 0.53 0.58 0.63 0.69 0.78 0.80 0.78 0.81 0.95 1.07 1.12 1.21 1.38 1.55 1.65 1.73 1.81 1.95 1.84 1.76 1.71 1.61 1.50 1.47 1.54
1.33 1.60 1.28 0.94 0.79 0.74 0.93 1.16 1.38 1.70 1.32 0.87 0.84 0.67 0.46 0.38 0.36 0.35 0.37 0.47 0.55 0.60 0.68 0.71 0.76 0.78 0.77 0.87 1.05 1.15 1.21 1.26 1.45 1.59 1.66 1.73 1.87 1.93 1.81 1.76 1.70 1.55 1.43 1.44
1.76 2.10 1.88 1.57 1.31 1.09 1.16 1.07 1.11 1.26 1.31 1.00 0.88 0.66 0.42 0.37 0.35 0.33 0.34 0.40 0.52 0.60 0.67 0.69 0.69 0.72 0.77 0.82 0.96 1.09 1.17 1.19 1.31 1.53 1.57 1.66 1.77 1.84 1.82 1.74 1.75 1.68 1.60 1.60
2.07 2.15 1.57 1.45 1.29 1.20 1.17 0.93 0.91 1.29 1.57 1.03 0.69 0.56 0.45 0.45 0.44 0.42 0.38 0.40 0.51 0.61 0.66 0.65 0.67 0.70 0.76 0.83 0.92 0.99 1.05 1.16 1.28 1.50 1.61 1.60 1.65 1.68 1.72 1.75 1.72 1.77 1.81 1.85
1.93 1.86 0.86 0.54 0.49 0.61 0.73 0.67 0.71 0.93 0.96 0.87 0.56 0.50 0.58 0.58 0.56 0.53 0.50 0.47 0.50 0.63 0.66 0.66 0.70 0.72 0.76 0.86 0.94 0.93 0.99 1.07 1.21 1.39 1.53 1.58 1.60 1.71 1.81 1.85 1.89 1.85 1.93 1.98
1.75 1.69 0.87 0.53 0.35 0.43 0.54 0.47 0.50 0.54 0.55 0.59 0.49 0.55 0.57 0.55 0.50 0.50 0.51 0.50 0.52 0.62 0.67 0.69 0.71 0.75 0.79 0.85 0.92 0.91 0.91 1.00 1.13 1.30 1.39 1.46 1.59 1.71 1.88 1.94 2.02 2.02 2.02 2.05
1.53 1.49 1.31 0.88 0.44 0.65 0.82 0.58 0.51 0.52 0.51 0.54 0.61 0.64 0.58 0.55 0.53 0.53 0.53 0.53 0.54 0.54 0.58 0.65 0.73 0.78 0.80 0.83 0.85 0.90 0.90 0.91 1.01 1.18 1.29 1.36 1.52 1.61 1.72 1.80 1.84 1.90 1.86 1.83
1.22 1.35 1.66 1.24 0.92 1.27 0.76 0.47 0.44 0.47 0.52 0.53 0.57 0.59 0.58 0.63 0.62 0.57 0.56 0.58 0.58 0.55 0.55 0.57 0.69 0.76 0.74 0.77 0.83 0.85 0.85 0.86 0.95 1.07 1.18 1.21 1.35 1.49 1.55 1.61 1.65 1.68 1.64 1.66
0.78 1.30 1.88 1.59 1.21 0.76 0.42 0.35 0.49 0.57 0.64 0.56 0.53 0.51 0.50 0.53 0.56 0.59 0.58 0.56 0.59 0.57 0.55 0.57 0.65 0.70 0.70 0.75 0.80 0.79 0.80 0.81 0.89 0.98 1.05 1.07 1.15 1.33 1.37 1.45 1.54 1.53 1.55 1.57
0.81 1.27 1.99 1.71 1.33 0.74 0.43 0.28 0.34 0.51 0.74 0.52 0.47 0.51 0.53 0.54 0.74 0.72 0.65 0.62 0.61 0.57 0.55 0.59 0.64 0.64 0.66 0.72 0.73 0.72 0.73 0.77 0.84 0.91 0.98 0.99 1.01 1.13 1.16 1.21 1.30 1.34 1.36 1.44
1.17 1.69 1.87 1.41 1.13 0.56 0.36 0.28 0.32 0.77 0.91 0.50 0.47 0.53 0.58 0.69 0.81 0.74 0.68 0.66 0.62 0.62 0.60 0.59 0.61 0.64 0.68 0.72 0.73 0.73 0.72 0.75 0.79 0.82 0.87 0.91 0.97 1.04 1.05 1.09 1.14 1.22 1.28 1.35
0.81 1.12 1.13 1.06 1.17 0.67 0.35 0.36 0.63 0.79 0.49 0.44 0.46 0.49 0.55 0.56 0.54 0.56 0.59 0.60 0.58 0.60 0.60 0.60 0.62 0.67 0.68 0.69 0.68 0.66 0.73 0.73 0.74 0.80 0.85 0.90 0.95 0.97 0.99 1.03 1.11 1.13 1.23 1.37
0.58 0.75 0.82 0.80 0.75 0.55 0.44 0.52 0.56 0.46 0.41 0.38 0.42 0.45 0.48 0.50 0.50 0.54 0.55 0.56 0.56 0.57 0.58 0.58 0.62 0.67 0.67 0.67 0.65 0.65 0.71 0.72 0.73 0.77 0.82 0.89 0.95 0.96 1.01 1.03 1.10 1.16 1.25 1.38
0.47 0.44 0.54 0.53 0.44 0.38 0.38 0.38 0.39 0.38 0.39 0.37 0.39 0.44 0.45 0.49 0.50 0.52 0.52 0.53 0.54 0.53 0.53 0.52 0.57 0.63 0.65 0.68 0.68 0.69 0.71 0.72 0.75 0.78 0.79 0.84 0.94 1.01 1.02 1.05 1.09 1.12 1.19 1.34
0.41 0.42 0.51 0.47 0.34 0.30 0.29 0.30 0.34 0.37 0.35 0.34 0.35 0.39 0.41 0.42 0.44 0.46 0.50 0.51 0.52 0.52 0.51 0.50 0.53 0.59 0.65 0.67 0.68 0.70 0.75 0.79 0.81 0.78 0.78 0.81 0.91 0.98 1.01 1.05 1.09 1.13 1.13 1.34
0.33 0.39 0.50 0.45 0.31 0.35 0.32 0.28 0.29 0.33 0.33 0.31 0.33 0.36 0.34 0.35 0.41 0.42 0.45 0.47 0.49 0.50 0.50 0.49 0.49 0.55 0.61 0.64 0.68 0.73 0.81 0.85 0.85 0.83 0.83 0.85 0.92 0.94 0.96 1.00 1.08 1.18 1.20 1.28